Regional Weather Roundup
Issued by NWS Cleveland, OH

Home | Current Version | Previous Version | Text Only | Print | Product List | Glossary Off
Versions: 1 2 3 4 5 6 7 8 9 10 11 12 13 14 15 16 17 18 19 20 21 22 23 24 25 26 27 28 29 30 31 32 33 34 35 36 37 38 39 40 41 42 43 44 45 46 47 48 49 50

000
ASUS41 KCLE 251912
RWRCLE
OHIO REGIONAL WEATHER ROUNDUP
NATIONAL WEATHER SERVICE WILMINGTON, OH
300 PM EDT THU MAY 25 2017

NOTE: "FAIR" INDICATES FEW OR NO CLOUDS BELOW 12,000 FEET WITH NO
SIGNIFICANT WEATHER AND/OR OBSTRUCTIONS TO VISIBILITY.

OHZ001>008-015>018-024>027-034-035-043-044-252000-
   NORTHWEST OHIO

CITY           SKY/WX    TMP DP  RH WIND       PRES   REMARKS
DEFIANCE       CLOUDY    62  58  86 N10       29.50S
FINDLAY        CLOUDY    67  58  72 NW13      29.45S
TOLEDO EXPRESS LGT RAIN  60  60 100 N9        29.49R FOG
TOLEDO EXEC    CLOUDY    64  60  87 N9        29.48S
LIMA           PTSUNNY   68  62  81 NW21      29.48R
$$

OHZ009>014-019>023-028>033-038-089-252000-
   NORTHEAST OHIO

CITY           SKY/WX    TMP DP  RH WIND       PRES   REMARKS
CLE-HOPKINS    LGT RAIN  62  58  86 N3        29.50R FOG
CLE-LAKEFRONT  LGT RAIN  60  57  89 SW3       29.47S FOG
CUY CO. ARPT   LGT RAIN  61  57  88 SW7       29.48S FOG
LORAIN-ELYRIA  NOT AVBL
ASHTABULA      LGT RAIN  60  58  92 VRB5      29.47F
AKRON-CANTON   LGT RAIN  62  56  80 SW8       29.47F
WOOSTER        LGT RAIN  60  57  89 S5        29.48S
MANSFIELD      LGT RAIN  62  57  83 CALM      29.47S
YOUNGSTOWN     PTSUNNY   64  56  75 SW8       29.47F
$$

OHZ042-051>053-060>062-070>072-077>081-252000-
  SOUTHWEST OHIO

CITY           SKY/WX    TMP DP  RH WIND       PRES   REMARKS
CINC-COVINGTON LGT RAIN  61  59  93 W20       29.53R
CINC-LUNKEN    PTSUNNY   66  61  84 W14G23    29.52R
HAMILTON       LGT RAIN  64  62  93 W13G21    29.51R
DAYTON         TSTM      67  61  81 NW15G21   29.48R
WRIGHT-PAT AFB PTSUNNY   68  61  77 N7        29.46R
DAYTON GENERAL CLOUDY    69  58  67 NW10      29.47S
WILMINGTON     PTSUNNY   68  59  73 W10       29.47S
$$

OHZ036-037-039>041-045>050-054>059-063>069-073>076-082>088-252000-
  CENTRAL AND SOUTHEAST OHIO

CITY           SKY/WX    TMP DP  RH WIND       PRES   REMARKS
COLUMBUS       CLOUDY    65  56  72 SW7       29.46R
OSU AIRPORT    LGT RAIN  61  59  93 SW5       29.46R
BOLTON FIELD   CLOUDY    66  59  77 S10G20    29.47S
RICKENBACK AFB CLOUDY    67  55  64 SW9       29.46R
NEWARK         CLOUDY    65  57  75 S8        29.46S
MARION         FAIR      67  55  65 SE6       29.46S
LANCASTER      FAIR      70  57  63 SW10      29.47S
ZANESVILLE     CLOUDY    63  58  83 S8        29.48F
NEW PHILLY     CLOUDY    60  57  89 SW5       29.49F
$$



USA.gov is the U.S. government's official web portal to all federal, state and local government web resources and services.